Location: La Comballaz
(46.3780°N, 7.0817°E)
Time: 04:17:36
(UTC+00:00)

Envisat - Pass Details

Date: 14 December 2021
Orbit: 764 x 766 km, 98.2° (Epoch: 16 January)

Event Time Altitude Azimuth Distance (km) Brightness Sun altitude
Rises 04:19:01 0° 16° (NNE) 3,243 6.4 -28.0°
Reaches altitude 10° 04:21:22 10° 20° (NNE) 2,312 5.6 -27.6°
Maximum altitude 04:26:25 60° 101° (E) 871 3.4 -26.7°
Drops below altitude 10° 04:31:25 10° 181° (S) 2,294 5.5 -25.8°
Sets 04:33:44 0° 185° (S) 3,215 6.3 -25.4°
